Hooper Bay, AK

8:47 AM AKDT on April 27, 2017 (GMT -0800)
Hooper Bay

Weather History for PAHP - May, 2014

Change the Weather History Date:

Sunday, May 4, 2014

  Actual Average Record
Temperature  
Mean Temperature 50 °F -  
Max Temperature 53 °F 31 °F 53 °F (2014)
Min Temperature 48 °F 25 °F -11 °F (2008)
Degree Days  
Heating Degree Days 14    
Moisture  
Dew Point 26 °F    
Average Humidity 39    
Maximum Humidity 47    
Minimum Humidity 28    
Precipitation  
Precipitation 0.00 in - - ()
Sea Level Pressure  
Sea Level Pressure 30.17 in    
Wind  
Wind Speed 12 mph (NW)    
Max Wind Speed 18 mph    
Max Gust Speed 22 mph    
Visibility 10 miles    
Events      
Averages and records for this station are not official NWS values.
T = Trace of Precipitation, MM = Missing Value Source: NWS Daily Summary

Daily Weather History Graph

Daily Weather History Graph

Search for Another Location

Airport or City:

Trip Planner

Search our weather history database for the weather conditions in past years. The results will help you decide how hot, cold, wet, or windy it might be!

Date:

Astronomy

May. 04, 2014 Rise Set
Actual Time 6:44 AM AKDT 11:20 PM AKDT
Civil Twilight 5:44 AM AKDT 12:21 AM AKDT
Nautical Twilight 3:43 AM AKDT 2:34 AM AKDT
Astronomical Twilight Sun does not set Sun does not set
Moon 11:16 AM AKDT (5/4) 3:38 AM AKDT (5/4)
Length of Visible Light 18h 37m
Length of Day
16h 35m
Waxing Crescent, 29% of the Moon is Illuminated
May 4
Waxing Crescent
May 6
First Quarter
May 14
Full
May 21
Last Quarter
May 28
New

Hourly Weather History & Observations

Time (AKDT) Temp. Dew Point Humidity Pressure Visibility Wind Dir Wind Speed Gust Speed Precip Events Conditions
12:16 AM 48.2 °F 26.6 °F 43% 30.16 in 10.0 mi West 10.4 mph - N/A   Overcast
12:36 AM 48.2 °F 28.4 °F 46% 30.16 in 10.0 mi West 11.5 mph 19.6 mph N/A   Overcast
12:56 AM 48.2 °F 28.4 °F 46% 30.15 in 10.0 mi West 16.1 mph - N/A   Overcast
1:16 AM 48.2 °F 28.4 °F 46% 30.15 in 10.0 mi West 13.8 mph 18.4 mph N/A   Overcast
1:36 AM 50.0 °F 26.6 °F 40% 30.15 in 10.0 mi West 15.0 mph 20.7 mph N/A   Overcast
1:56 AM 50.0 °F 28.4 °F 43% 30.15 in 10.0 mi West 13.8 mph 21.9 mph N/A   Overcast
2:16 AM 50.0 °F 28.4 °F 43% 30.15 in 10.0 mi West 13.8 mph 20.7 mph N/A   Overcast
2:36 AM 50.0 °F 28.4 °F 43% 30.15 in 10.0 mi West 12.7 mph 21.9 mph N/A   Overcast
2:56 AM 50.0 °F 28.4 °F 43% 30.15 in 10.0 mi West 10.4 mph 17.3 mph N/A   Overcast
3:16 AM 51.8 °F 30.2 °F 44% 30.15 in 10.0 mi West 11.5 mph 18.4 mph N/A   Overcast
3:36 AM 50.0 °F 30.2 °F 47% 30.14 in 10.0 mi West 10.4 mph - N/A   Overcast
3:56 AM 51.8 °F 30.2 °F 44% 30.14 in 10.0 mi West 10.4 mph - N/A   Overcast
4:16 AM 51.8 °F 30.2 °F 44% 30.14 in 10.0 mi West 9.2 mph - N/A   Overcast
4:36 AM 51.8 °F 30.2 °F 44% 30.14 in 10.0 mi West 10.4 mph 16.1 mph N/A   Overcast
4:56 AM 51.8 °F 30.2 °F 44% 30.14 in 10.0 mi West 9.2 mph - N/A   Overcast
5:16 AM 51.8 °F 30.2 °F 44% 30.14 in 10.0 mi West 9.2 mph - N/A   Overcast
5:36 AM 50.0 °F 30.2 °F 47% 30.14 in 10.0 mi West 12.7 mph 19.6 mph N/A   Overcast
5:56 AM 50.0 °F 30.2 °F 47% 30.14 in 10.0 mi WNW 15.0 mph - N/A   Overcast
6:16 AM 48.2 °F 28.4 °F 46% 30.14 in 10.0 mi WNW 13.8 mph 19.6 mph N/A   Overcast
6:36 AM 48.2 °F 28.4 °F 46% 30.15 in 10.0 mi WNW 17.3 mph 20.7 mph N/A   Overcast
6:56 AM 48.2 °F 28.4 °F 46% 30.15 in 10.0 mi WNW 12.7 mph 19.6 mph N/A   Overcast
7:16 AM 48.2 °F 28.4 °F 46% 30.15 in 10.0 mi NW 13.8 mph 21.9 mph N/A   Overcast
7:36 AM 48.2 °F 28.4 °F 46% 30.16 in 7.0 mi NW 12.7 mph - N/A   Overcast
7:56 AM 48.2 °F 28.4 °F 46% 30.16 in 10.0 mi NW 12.7 mph - N/A   Overcast
8:16 AM 48.2 °F 28.4 °F 46% 30.16 in 10.0 mi NW 13.8 mph - N/A   Overcast
8:36 AM 50.0 °F 26.6 °F 40% 30.16 in 10.0 mi NNW 12.7 mph - N/A   Overcast
8:56 AM 48.2 °F 26.6 °F 43% 30.16 in 10.0 mi NW 11.5 mph - N/A   Overcast
9:16 AM 50.0 °F 28.4 °F 43% 30.17 in 10.0 mi NNW 13.8 mph - N/A   Overcast
9:36 AM 48.2 °F 24.8 °F 40% 30.17 in 10.0 mi NW 11.5 mph - N/A   Overcast
9:56 AM 50.0 °F 24.8 °F 37% 30.17 in 10.0 mi NNW 12.7 mph - N/A   Overcast
10:16 AM 50.0 °F 24.8 °F 37% 30.17 in 9.0 mi NW 11.5 mph 16.1 mph N/A   Overcast
10:36 AM 50.0 °F 24.8 °F 37% 30.17 in 10.0 mi NNW 11.5 mph - N/A   Overcast
10:56 AM 48.2 °F 24.8 °F 40% 30.17 in 10.0 mi NNW 10.4 mph 17.3 mph N/A   Overcast
11:16 AM 50.0 °F 24.8 °F 37% 30.18 in 10.0 mi NW 10.4 mph - N/A   Overcast
11:36 AM 48.2 °F 24.8 °F 40% 30.18 in 10.0 mi NW 10.4 mph - N/A   Overcast
11:56 AM 48.2 °F 24.8 °F 40% 30.19 in 10.0 mi NW 11.5 mph - N/A   Overcast
12:16 PM 48.2 °F 24.8 °F 40% 30.19 in 10.0 mi NW 10.4 mph - N/A   Overcast
12:36 PM 50.0 °F 24.8 °F 37% 30.19 in 10.0 mi WNW 6.9 mph - N/A   Overcast
12:56 PM 48.2 °F 24.8 °F 40% 30.20 in 10.0 mi NNW 9.2 mph - N/A   Overcast
1:16 PM 51.8 °F 24.8 °F 35% 30.19 in 10.0 mi NNW 12.7 mph - N/A   Overcast
1:36 PM 51.8 °F 24.8 °F 35% 30.19 in 10.0 mi NNW 12.7 mph - N/A   Overcast
1:56 PM 51.8 °F 24.8 °F 35% 30.19 in 10.0 mi NW 13.8 mph - N/A   Overcast
2:16 PM 51.8 °F 26.6 °F 38% 30.19 in 10.0 mi NW 9.2 mph - N/A   Overcast
2:36 PM 51.8 °F 26.6 °F 38% 30.19 in 10.0 mi NW 10.4 mph - N/A   Overcast
2:56 PM 51.8 °F 26.6 °F 38% 30.19 in 10.0 mi NNW 12.7 mph 16.1 mph N/A   Overcast
3:16 PM 51.8 °F 23.0 °F 33% 30.19 in 10.0 mi NNW 13.8 mph - N/A   Overcast
3:36 PM 53.6 °F 21.2 °F 28% 30.19 in 10.0 mi NNW 12.7 mph - N/A   Overcast
3:56 PM 53.6 °F 24.8 °F 33% 30.19 in 10.0 mi NNW 16.1 mph - N/A   Overcast
4:16 PM 53.6 °F 23.0 °F 30% 30.19 in 10.0 mi NW 11.5 mph - N/A   Overcast
4:36 PM 53.6 °F 23.0 °F 30% 30.19 in 10.0 mi NNW 13.8 mph - N/A   Overcast
4:56 PM 53.6 °F 26.6 °F 35% 30.18 in 10.0 mi NW 13.8 mph - N/A   Overcast
5:16 PM 53.6 °F 26.6 °F 35% 30.18 in 10.0 mi NNW 15.0 mph - N/A   Overcast
5:36 PM 51.8 °F 24.8 °F 35% 30.19 in 10.0 mi NNW 18.4 mph - N/A   Overcast
5:56 PM 51.8 °F 24.8 °F 35% 30.18 in 10.0 mi NNW 13.8 mph - N/A   Overcast
6:16 PM 51.8 °F 21.2 °F 30% 30.18 in 10.0 mi NNW 13.8 mph - N/A   Overcast
6:36 PM 51.8 °F 21.2 °F 30% 30.18 in 10.0 mi NNW 15.0 mph - N/A   Overcast
6:56 PM 51.8 °F 23.0 °F 33% 30.18 in 10.0 mi NNW 16.1 mph - N/A   Overcast
7:16 PM 51.8 °F 21.2 °F 30% 30.18 in 10.0 mi NNW 16.1 mph 19.6 mph N/A   Overcast
7:36 PM 51.8 °F 19.4 °F 28% 30.18 in 10.0 mi NNW 15.0 mph - N/A   Overcast
7:56 PM 51.8 °F 19.4 °F 28% 30.19 in 10.0 mi NNW 16.1 mph - N/A   Overcast
8:16 PM 50.0 °F 21.2 °F 32% 30.19 in 10.0 mi NNW 11.5 mph - N/A   Overcast
8:36 PM 48.2 °F 21.2 °F 34% 30.19 in 10.0 mi NNW 12.7 mph - N/A   Overcast
8:56 PM 48.2 °F 21.2 °F 34% 30.19 in 10.0 mi North 11.5 mph - N/A   Overcast
9:16 PM 48.2 °F 23.0 °F 37% 30.19 in 10.0 mi North 12.7 mph - N/A   Overcast
9:36 PM 48.2 °F 23.0 °F 37% 30.19 in 10.0 mi NNW 9.2 mph - N/A   Overcast
9:56 PM 48.2 °F 23.0 °F 37% 30.19 in 10.0 mi North 9.2 mph - N/A   Overcast
10:16 PM 48.2 °F 24.8 °F 40% 30.19 in 10.0 mi NNW 11.5 mph - N/A   Overcast
10:36 PM 48.2 °F 21.2 °F 34% 30.19 in 10.0 mi North 8.1 mph - N/A   Overcast
10:56 PM 48.2 °F 24.8 °F 40% 30.19 in 10.0 mi North 10.4 mph - N/A   Overcast
11:16 PM 48.2 °F 23.0 °F 37% 30.19 in 10.0 mi North 11.5 mph - N/A   Overcast
11:36 PM 48.2 °F 21.2 °F 34% 30.19 in 10.0 mi North 9.2 mph - N/A   Overcast
11:56 PM 48.2 °F 21.2 °F 34% 30.19 in 10.0 mi North 3.5 mph - N/A   Overcast